contact:dominique.lefevre@mio.osupytheas.fr, maurice.libes@osupytheas.fr, didier.mallarino@osupytheas.fr
Project:EMSO http://www.emso-fr.org/EMSO-France
Depth: 2436.0 m
Title:EMSO Ligure Ouest : Data MII capteur MICROCAT
DateTime_Computer,Latitude,Longitude,Temperature,Conductivity,Pressure,DateTime_Instrument
DateTime_Computer,Latitude,Longitude,degC,S m-1,dbar,DateTime_Instrument
2023-11-23T00:00:19Z,42.805,6.029,13.3038,4.60108,2470.656,2023-11-23T02:02:47Z
2023-11-23T00:03:22Z,42.805,6.029,13.3036,4.60114,2470.693,2023-11-23T02:05:50Z
2023-11-23T00:06:26Z,42.805,6.029,13.3034,4.60111,2470.73,2023-11-23T02:08:53Z
2023-11-23T00:09:29Z,42.805,6.029,13.3034,4.60110,2470.73,2023-11-23T02:11:56Z
2023-11-23T00:12:32Z,42.805,6.029,13.3034,4.60107,2470.707,2023-11-23T02:15:00Z
2023-11-23T00:15:35Z,42.805,6.029,13.3036,4.60110,2470.717,2023-11-23T02:18:03Z
2023-11-23T00:18:38Z,42.805,6.029,13.3039,4.60113,2470.693,2023-11-23T02:21:06Z
2023-11-23T00:21:41Z,42.805,6.029,13.3039,4.60108,2470.74,2023-11-23T02:24:09Z
2023-11-23T00:24:44Z,42.805,6.029,13.3037,4.60114,2470.693,2023-11-23T02:27:12Z
2023-11-23T00:27:47Z,42.805,6.029,13.3030,4.60110,2470.754,2023-11-23T02:30:15Z
2023-11-23T00:30:50Z,42.805,6.029,13.3034,4.60108,2470.73,2023-11-23T02:33:18Z
2023-11-23T00:33:53Z,42.805,6.029,13.3034,4.60110,2470.74,2023-11-23T02:36:21Z
2023-11-23T00:36:56Z,42.805,6.029,13.3032,4.60111,2470.754,2023-11-23T02:39:24Z
2023-11-23T00:39:59Z,42.805,6.029,13.3034,4.60111,2470.693,2023-11-23T02:42:27Z
2023-11-23T00:43:03Z,42.805,6.029,13.3035,4.60108,2470.73,2023-11-23T02:45:30Z
2023-11-23T00:46:06Z,42.805,6.029,13.3034,4.60112,2470.73,2023-11-23T02:48:33Z
2023-11-23T00:49:09Z,42.805,6.029,13.3033,4.60110,2470.717,2023-11-23T02:51:36Z
2023-11-23T00:52:12Z,42.805,6.029,13.3036,4.60107,2470.73,2023-11-23T02:54:40Z
2023-11-23T00:55:15Z,42.805,6.029,13.3032,4.60111,2470.754,2023-11-23T02:57:43Z
2023-11-23T00:58:18Z,42.805,6.029,13.3031,4.60117,2470.717,2023-11-23T03:00:46Z
2023-11-23T01:01:21Z,42.805,6.029,13.3033,4.60111,2470.717,2023-11-23T03:03:49Z
2023-11-23T01:04:24Z,42.805,6.029,13.3033,4.60109,2470.74,2023-11-23T03:06:52Z
2023-11-23T01:07:27Z,42.805,6.029,13.3040,4.60119,2470.73,2023-11-23T03:09:55Z
2023-11-23T01:10:30Z,42.805,6.029,13.3039,4.60109,2470.74,2023-11-23T03:12:58Z
2023-11-23T01:13:33Z,42.805,6.029,13.3033,4.60111,2470.754,2023-11-23T03:16:01Z
2023-11-23T01:16:36Z,42.805,6.029,13.3041,4.60121,2470.73,2023-11-23T03:19:04Z
2023-11-23T01:19:39Z,42.805,6.029,13.3036,4.60117,2470.74,2023-11-23T03:22:07Z
2023-11-23T01:22:43Z,42.805,6.029,13.3036,4.60112,2470.73,2023-11-23T03:25:10Z
2023-11-23T01:25:46Z,42.805,6.029,13.3034,4.60119,2470.74,2023-11-23T03:28:13Z
2023-11-23T01:28:49Z,42.805,6.029,13.3035,4.60112,2470.74,2023-11-23T03:31:17Z
2023-11-23T01:31:52Z,42.805,6.029,13.3035,4.60110,2470.717,2023-11-23T03:34:20Z
2023-11-23T01:34:55Z,42.805,6.029,13.3035,4.60109,2470.74,2023-11-23T03:37:23Z
2023-11-23T01:37:58Z,42.805,6.029,13.3036,4.60109,2470.74,2023-11-23T03:40:26Z
2023-11-23T01:41:01Z,42.805,6.029,13.3034,4.60110,2470.717,2023-11-23T03:43:29Z
2023-11-23T01:44:04Z,42.805,6.029,13.3031,4.60110,2470.777,2023-11-23T03:46:32Z
2023-11-23T01:47:07Z,42.805,6.029,13.3033,4.60113,2470.74,2023-11-23T03:49:35Z
2023-11-23T01:50:10Z,42.805,6.029,13.3039,4.60117,2470.777,2023-11-23T03:52:38Z
2023-11-23T01:53:13Z,42.805,6.029,13.3039,4.60112,2470.74,2023-11-23T03:55:41Z
2023-11-23T01:56:16Z,42.805,6.029,13.3037,4.60115,2470.763,2023-11-23T03:58:44Z
2023-11-23T01:59:19Z,42.805,6.029,13.3038,4.60110,2470.763,2023-11-23T04:01:47Z
2023-11-23T02:02:23Z,42.805,6.029,13.3036,4.60109,2470.763,2023-11-23T04:04:50Z
2023-11-23T02:05:26Z,42.805,6.029,13.3031,4.60114,2470.824,2023-11-23T04:07:53Z
2023-11-23T02:08:29Z,42.805,6.029,13.3031,4.60107,2470.74,2023-11-23T04:10:57Z
2023-11-23T02:11:32Z,42.805,6.029,13.3035,4.60111,2470.763,2023-11-23T04:14:00Z
2023-11-23T02:14:35Z,42.805,6.029,13.3031,4.60108,2470.763,2023-11-23T04:17:03Z
2023-11-23T02:17:38Z,42.805,6.029,13.3034,4.60116,2470.74,2023-11-23T04:20:06Z
2023-11-23T02:20:41Z,42.805,6.029,13.3038,4.60111,2470.763,2023-11-23T04:23:09Z
2023-11-23T02:23:44Z,42.805,6.029,13.3036,4.60114,2470.763,2023-11-23T04:26:12Z
2023-11-23T02:26:47Z,42.805,6.029,13.3037,4.60117,2470.777,2023-11-23T04:29:15Z
2023-11-23T02:29:50Z,42.805,6.029,13.3034,4.60110,2470.763,2023-11-23T04:32:18Z
2023-11-23T02:32:53Z,42.805,6.029,13.3035,4.60110,2470.8,2023-11-23T04:35:21Z
2023-11-23T02:35:56Z,42.805,6.029,13.3038,4.60110,2470.8,2023-11-23T04:38:24Z
2023-11-23T02:39:00Z,42.805,6.029,13.3038,4.60113,2470.787,2023-11-23T04:41:27Z
2023-11-23T02:42:03Z,42.805,6.029,13.3032,4.60114,2470.8,2023-11-23T04:44:30Z
2023-11-23T02:45:06Z,42.805,6.029,13.3031,4.60110,2470.8,2023-11-23T04:47:34Z
2023-11-23T02:48:09Z,42.805,6.029,13.3036,4.60108,2470.8,2023-11-23T04:50:37Z
2023-11-23T02:51:12Z,42.805,6.029,13.3036,4.60108,2470.81,2023-11-23T04:53:40Z
2023-11-23T02:54:15Z,42.805,6.029,13.3036,4.60112,2470.8,2023-11-23T04:56:43Z
2023-11-23T02:57:18Z,42.805,6.029,13.3034,4.60117,2470.787,2023-11-23T04:59:46Z
2023-11-23T03:00:21Z,42.805,6.029,13.3036,4.60116,2470.787,2023-11-23T05:02:49Z
2023-11-23T03:03:24Z,42.805,6.029,13.3041,4.60124,2470.75,2023-11-23T05:05:52Z
2023-11-23T03:06:27Z,42.805,6.029,13.3034,4.60112,2470.824,2023-11-23T05:08:55Z
2023-11-23T03:09:30Z,42.805,6.029,13.3034,4.60111,2470.81,2023-11-23T05:11:58Z
2023-11-23T03:12:33Z,42.805,6.029,13.3031,4.60110,2470.787,2023-11-23T05:15:01Z
2023-11-23T03:15:36Z,42.805,6.029,13.3036,4.60112,2470.824,2023-11-23T05:18:04Z
2023-11-23T03:18:40Z,42.805,6.029,13.3036,4.60115,2470.773,2023-11-23T05:21:07Z
2023-11-23T03:21:43Z,42.805,6.029,13.3031,4.60112,2470.8,2023-11-23T05:24:10Z
2023-11-23T03:24:46Z,42.805,6.029,13.3032,4.60115,2470.8,2023-11-23T05:27:14Z
2023-11-23T03:27:49Z,42.805,6.029,13.3034,4.60118,2470.8,2023-11-23T05:30:17Z
2023-11-23T03:30:52Z,42.805,6.029,13.3035,4.60117,2470.81,2023-11-23T05:33:20Z
2023-11-23T03:33:55Z,42.805,6.029,13.3032,4.60111,2470.787,2023-11-23T05:36:23Z
2023-11-23T03:36:58Z,42.805,6.029,13.3039,4.60125,2470.81,2023-11-23T05:39:26Z
2023-11-23T03:40:01Z,42.805,6.029,13.3035,4.60111,2470.773,2023-11-23T05:42:29Z
2023-11-23T03:43:04Z,42.805,6.029,13.3033,4.60111,2470.81,2023-11-23T05:45:32Z
2023-11-23T03:46:07Z,42.805,6.029,13.3031,4.60111,2470.81,2023-11-23T05:48:35Z
2023-11-23T03:49:10Z,42.805,6.029,13.3034,4.60111,2470.787,2023-11-23T05:51:38Z
2023-11-23T03:52:13Z,42.805,6.029,13.3040,4.60121,2470.81,2023-11-23T05:54:41Z
2023-11-23T03:55:17Z,42.805,6.029,13.3041,4.60117,2470.787,2023-11-23T05:57:44Z
2023-11-23T03:58:20Z,42.805,6.029,13.3037,4.60113,2470.81,2023-11-23T06:00:47Z
2023-11-23T04:01:23Z,42.805,6.029,13.3039,4.60110,2470.787,2023-11-23T06:03:51Z
2023-11-23T04:04:26Z,42.805,6.029,13.3039,4.60114,2470.787,2023-11-23T06:06:54Z
2023-11-23T04:07:29Z,42.805,6.029,13.3034,4.60110,2470.81,2023-11-23T06:09:57Z
2023-11-23T04:10:32Z,42.805,6.029,13.3037,4.60119,2470.847,2023-11-23T06:13:00Z
2023-11-23T04:13:35Z,42.805,6.029,13.3038,4.60114,2470.8,2023-11-23T06:16:03Z
2023-11-23T04:16:38Z,42.805,6.029,13.3042,4.60121,2470.787,2023-11-23T06:19:06Z
2023-11-23T04:19:41Z,42.805,6.029,13.3036,4.60116,2470.787,2023-11-23T06:22:09Z
2023-11-23T04:22:44Z,42.805,6.029,13.3039,4.60111,2470.833,2023-11-23T06:25:12Z
2023-11-23T04:25:47Z,42.805,6.029,13.3039,4.60125,2470.81,2023-11-23T06:28:15Z
2023-11-23T04:28:50Z,42.805,6.029,13.3035,4.60116,2470.8,2023-11-23T06:31:18Z
2023-11-23T04:31:53Z,42.805,6.029,13.3034,4.60112,2470.847,2023-11-23T06:34:21Z
2023-11-23T04:34:57Z,42.805,6.029,13.3033,4.60110,2470.763,2023-11-23T06:37:24Z
2023-11-23T04:38:00Z,42.805,6.029,13.3036,4.60118,2470.81,2023-11-23T06:40:27Z
2023-11-23T04:41:03Z,42.805,6.029,13.3034,4.60113,2470.763,2023-11-23T06:43:31Z
2023-11-23T04:44:06Z,42.805,6.029,13.3038,4.60112,2470.81,2023-11-23T06:46:34Z
2023-11-23T04:47:09Z,42.805,6.029,13.3032,4.60114,2470.81,2023-11-23T06:49:37Z
2023-11-23T04:50:12Z,42.805,6.029,13.3037,4.60134,2470.81,2023-11-23T06:52:40Z
2023-11-23T04:53:15Z,42.805,6.029,13.3029,4.60115,2470.777,2023-11-23T06:55:43Z
2023-11-23T04:56:18Z,42.805,6.029,13.3035,4.60112,2470.8,2023-11-23T06:58:46Z
2023-11-23T04:59:21Z,42.805,6.029,13.3037,4.60120,2470.787,2023-11-23T07:01:49Z
2023-11-23T05:02:24Z,42.805,6.029,13.3035,4.60114,2470.787,2023-11-23T07:04:52Z
2023-11-23T05:05:27Z,42.805,6.029,13.3043,4.60121,2470.8,2023-11-23T07:07:55Z
2023-11-23T05:08:30Z,42.805,6.029,13.3035,4.60118,2470.787,2023-11-23T07:10:58Z
2023-11-23T05:11:34Z,42.805,6.029,13.3040,4.60119,2470.8,2023-11-23T07:14:01Z
2023-11-23T05:14:37Z,42.805,6.029,13.3046,4.60132,2470.777,2023-11-23T07:17:04Z
2023-11-23T05:17:40Z,42.805,6.029,13.3034,4.60114,2470.8,2023-11-23T07:20:08Z
2023-11-23T05:20:43Z,42.805,6.029,13.3034,4.60125,2470.763,2023-11-23T07:23:11Z
2023-11-23T05:23:46Z,42.805,6.029,13.3036,4.60121,2470.8,2023-11-23T07:26:14Z
2023-11-23T05:26:49Z,42.805,6.029,13.3034,4.60113,2470.787,2023-11-23T07:29:17Z
2023-11-23T05:29:52Z,42.805,6.029,13.3041,4.60120,2470.787,2023-11-23T07:32:20Z
2023-11-23T05:32:54Z,42.805,6.029,13.3042,4.60126,2470.763,2023-11-23T07:35:22Z
2023-11-23T05:35:57Z,42.805,6.029,13.3036,4.60119,2470.763,2023-11-23T07:38:25Z
2023-11-23T05:39:00Z,42.805,6.029,13.3033,4.60110,2470.8,2023-11-23T07:41:28Z
2023-11-23T05:42:03Z,42.805,6.029,13.3032,4.60111,2470.8,2023-11-23T07:44:31Z
2023-11-23T05:45:06Z,42.805,6.029,13.3039,4.60118,2470.8,2023-11-23T07:47:34Z
2023-11-23T05:48:09Z,42.805,6.029,13.3036,4.60123,2470.777,2023-11-23T07:50:37Z
2023-11-23T05:51:13Z,42.805,6.029,13.3041,4.60134,2470.763,2023-11-23T07:53:40Z
2023-11-23T05:54:16Z,42.805,6.029,13.3034,4.60126,2470.8,2023-11-23T07:56:43Z
2023-11-23T05:57:19Z,42.805,6.029,13.3039,4.60122,2470.763,2023-11-23T07:59:47Z
2023-11-23T06:00:22Z,42.805,6.029,13.3036,4.60127,2470.763,2023-11-23T08:02:50Z
2023-11-23T06:03:25Z,42.805,6.029,13.3038,4.60117,2470.787,2023-11-23T08:05:53Z
2023-11-23T06:06:28Z,42.805,6.029,13.3039,4.60117,2470.763,2023-11-23T08:08:56Z
2023-11-23T06:09:31Z,42.805,6.029,13.3036,4.60120,2470.777,2023-11-23T08:11:59Z
2023-11-23T06:12:34Z,42.805,6.029,13.3040,4.60119,2470.763,2023-11-23T08:15:02Z
2023-11-23T06:15:37Z,42.805,6.029,13.3037,4.60123,2470.74,2023-11-23T08:18:05Z
2023-11-23T06:18:40Z,42.805,6.029,13.3035,4.60119,2470.763,2023-11-23T08:21:08Z
2023-11-23T06:21:43Z,42.805,6.029,13.3039,4.60122,2470.74,2023-11-23T08:24:11Z
2023-11-23T06:24:46Z,42.805,6.029,13.3031,4.60116,2470.763,2023-11-23T08:27:14Z
2023-11-23T06:27:49Z,42.805,6.029,13.3035,4.60129,2470.787,2023-11-23T08:30:17Z
2023-11-23T06:30:53Z,42.805,6.029,13.3033,4.60125,2470.777,2023-11-23T08:33:20Z
2023-11-23T06:33:56Z,42.805,6.029,13.3034,4.60134,2470.763,2023-11-23T08:36:24Z
2023-11-23T06:36:59Z,42.805,6.029,13.3038,4.60111,2470.777,2023-11-23T08:39:27Z
2023-11-23T06:40:02Z,42.805,6.029,13.3040,4.60133,2470.787,2023-11-23T08:42:30Z
2023-11-23T06:43:05Z,42.805,6.029,13.3038,4.60114,2470.763,2023-11-23T08:45:33Z
2023-11-23T06:46:08Z,42.805,6.029,13.3032,4.60113,2470.787,2023-11-23T08:48:36Z
2023-11-23T06:49:11Z,42.805,6.029,13.3034,4.60114,2470.763,2023-11-23T08:51:39Z
2023-11-23T06:52:14Z,42.805,6.029,13.3047,4.60125,2470.777,2023-11-23T08:54:42Z
2023-11-23T06:55:17Z,42.805,6.029,13.3039,4.60131,2470.763,2023-11-23T08:57:45Z
2023-11-23T06:58:20Z,42.805,6.029,13.3034,4.60123,2470.74,2023-11-23T09:00:48Z
2023-11-23T07:01:23Z,42.805,6.029,13.3039,4.60123,2470.763,2023-11-23T09:03:51Z
2023-11-23T07:04:26Z,42.805,6.029,13.3031,4.60125,2470.763,2023-11-23T09:06:54Z
2023-11-23T07:07:30Z,42.805,6.029,13.3037,4.60116,2470.763,2023-11-23T09:09:57Z
2023-11-23T07:10:33Z,42.805,6.029,13.3036,4.60117,2470.763,2023-11-23T09:13:01Z
2023-11-23T07:13:36Z,42.805,6.029,13.3032,4.60113,2470.777,2023-11-23T09:16:04Z
2023-11-23T07:16:39Z,42.805,6.029,13.3032,4.60123,2470.763,2023-11-23T09:19:07Z
2023-11-23T07:19:42Z,42.805,6.029,13.3037,4.60116,2470.763,2023-11-23T09:22:10Z
2023-11-23T07:22:45Z,42.805,6.029,13.3034,4.60127,2470.754,2023-11-23T09:25:13Z
2023-11-23T07:25:48Z,42.805,6.029,13.3036,4.60125,2470.824,2023-11-23T09:28:16Z
2023-11-23T07:28:51Z,42.805,6.029,13.3036,4.60117,2470.763,2023-11-23T09:31:19Z
2023-11-23T07:31:54Z,42.805,6.029,13.3036,4.60119,2470.74,2023-11-23T09:34:22Z
2023-11-23T07:34:57Z,42.805,6.029,13.3032,4.60111,2470.763,2023-11-23T09:37:25Z
2023-11-23T07:38:00Z,42.805,6.029,13.3036,4.60123,2470.763,2023-11-23T09:40:28Z
2023-11-23T07:41:03Z,42.805,6.029,13.3036,4.60112,2470.777,2023-11-23T09:43:31Z
2023-11-23T07:44:06Z,42.805,6.029,13.3034,4.60116,2470.754,2023-11-23T09:46:34Z
2023-11-23T07:47:10Z,42.805,6.029,13.3041,4.60123,2470.717,2023-11-23T09:49:37Z
2023-11-23T07:50:13Z,42.805,6.029,13.3034,4.60117,2470.777,2023-11-23T09:52:41Z
2023-11-23T07:53:16Z,42.805,6.029,13.3034,4.60114,2470.74,2023-11-23T09:55:44Z
2023-11-23T07:56:19Z,42.805,6.029,13.3036,4.60123,2470.754,2023-11-23T09:58:47Z
2023-11-23T07:59:22Z,42.805,6.029,13.3039,4.60123,2470.777,2023-11-23T10:01:50Z
2023-11-23T08:02:25Z,42.805,6.029,13.3035,4.60121,2470.787,2023-11-23T10:04:53Z
2023-11-23T08:05:28Z,42.805,6.029,13.3039,4.60114,2470.74,2023-11-23T10:07:56Z
2023-11-23T08:08:31Z,42.805,6.029,13.3036,4.60114,2470.74,2023-11-23T10:10:59Z
2023-11-23T08:11:34Z,42.805,6.029,13.3034,4.60119,2470.73,2023-11-23T10:14:02Z
2023-11-23T08:14:37Z,42.805,6.029,13.3034,4.60134,2470.74,2023-11-23T10:17:05Z
2023-11-23T08:17:40Z,42.805,6.029,13.3039,4.60125,2470.74,2023-11-23T10:20:08Z
2023-11-23T08:20:43Z,42.805,6.029,13.3038,4.60117,2470.763,2023-11-23T10:23:11Z
2023-11-23T08:23:47Z,42.805,6.029,13.3037,4.60119,2470.763,2023-11-23T10:26:14Z
2023-11-23T08:26:50Z,42.805,6.029,13.3035,4.60116,2470.777,2023-11-23T10:29:18Z
2023-11-23T08:29:53Z,42.805,6.029,13.3042,4.60125,2470.754,2023-11-23T10:32:21Z
2023-11-23T08:32:56Z,42.805,6.029,13.3042,4.60120,2470.717,2023-11-23T10:35:24Z
2023-11-23T08:35:59Z,42.805,6.029,13.3041,4.60118,2470.754,2023-11-23T10:38:27Z
2023-11-23T08:39:02Z,42.805,6.029,13.3036,4.60120,2470.74,2023-11-23T10:41:30Z
2023-11-23T08:42:05Z,42.805,6.029,13.3035,4.60121,2470.74,2023-11-23T10:44:33Z
2023-11-23T08:45:08Z,42.805,6.029,13.3043,4.60125,2470.777,2023-11-23T10:47:36Z
2023-11-23T08:48:11Z,42.805,6.029,13.3033,4.60129,2470.74,2023-11-23T10:50:39Z
2023-11-23T08:51:14Z,42.805,6.029,13.3046,4.60117,2470.74,2023-11-23T10:53:42Z
2023-11-23T08:54:17Z,42.805,6.029,13.3043,4.60117,2470.763,2023-11-23T10:56:45Z
2023-11-23T08:57:21Z,42.805,6.029,13.3041,4.60118,2470.74,2023-11-23T10:59:48Z
2023-11-23T09:00:24Z,42.805,6.029,13.3036,4.60137,2470.717,2023-11-23T11:02:51Z
2023-11-23T09:03:27Z,42.805,6.029,13.3034,4.60116,2470.74,2023-11-23T11:05:55Z
2023-11-23T09:06:30Z,42.805,6.029,13.3041,4.60115,2470.74,2023-11-23T11:08:58Z
2023-11-23T09:09:33Z,42.805,6.029,13.3036,4.60112,2470.717,2023-11-23T11:12:01Z
2023-11-23T09:12:36Z,42.805,6.029,13.3034,4.60110,2470.717,2023-11-23T11:15:04Z
2023-11-23T09:15:39Z,42.805,6.029,13.3036,4.60110,2470.74,2023-11-23T11:18:07Z
2023-11-23T09:18:42Z,42.805,6.029,13.3038,4.60116,2470.717,2023-11-23T11:21:10Z
2023-11-23T09:21:45Z,42.805,6.029,13.3033,4.60117,2470.717,2023-11-23T11:24:13Z
2023-11-23T09:24:48Z,42.805,6.029,13.3040,4.60114,2470.717,2023-11-23T11:27:16Z
2023-11-23T09:27:51Z,42.805,6.029,13.3040,4.60122,2470.74,2023-11-23T11:30:19Z
2023-11-23T09:30:54Z,42.805,6.029,13.3039,4.60117,2470.717,2023-11-23T11:33:22Z
2023-11-23T09:33:58Z,42.805,6.029,13.3041,4.60115,2470.717,2023-11-23T11:36:25Z
2023-11-23T09:37:01Z,42.805,6.029,13.3041,4.60116,2470.73,2023-11-23T11:39:29Z
2023-11-23T09:40:04Z,42.805,6.029,13.3046,4.60120,2470.717,2023-11-23T11:42:32Z
2023-11-23T09:43:07Z,42.805,6.029,13.3041,4.60120,2470.73,2023-11-23T11:45:35Z
2023-11-23T09:46:10Z,42.805,6.029,13.3041,4.60117,2470.754,2023-11-23T11:48:38Z
2023-11-23T09:49:13Z,42.805,6.029,13.3041,4.60120,2470.754,2023-11-23T11:51:41Z
2023-11-23T09:52:16Z,42.805,6.029,13.3039,4.60117,2470.693,2023-11-23T11:54:44Z
2023-11-23T09:55:19Z,42.805,6.029,13.3038,4.60128,2470.754,2023-11-23T11:57:47Z
2023-11-23T09:58:22Z,42.805,6.029,13.3040,4.60123,2470.717,2023-11-23T12:00:50Z
2023-11-23T10:01:25Z,42.805,6.029,13.3033,4.60117,2470.717,2023-11-23T12:03:53Z
2023-11-23T10:04:28Z,42.805,6.029,13.3034,4.60120,2470.717,2023-11-23T12:06:56Z
2023-11-23T10:07:31Z,42.805,6.029,13.3040,4.60114,2470.717,2023-11-23T12:09:59Z
2023-11-23T10:10:35Z,42.805,6.029,13.3037,4.60123,2470.717,2023-11-23T12:13:02Z
2023-11-23T10:13:38Z,42.805,6.029,13.3036,4.60114,2470.73,2023-11-23T12:16:05Z
2023-11-23T10:16:41Z,42.805,6.029,13.3039,4.60117,2470.754,2023-11-23T12:19:09Z
2023-11-23T10:19:44Z,42.805,6.029,13.3041,4.60122,2470.74,2023-11-23T12:22:12Z
2023-11-23T10:22:47Z,42.805,6.029,13.3039,4.60117,2470.754,2023-11-23T12:25:15Z
2023-11-23T10:25:50Z,42.805,6.029,13.3038,4.60122,2470.693,2023-11-23T12:28:18Z
2023-11-23T10:28:53Z,42.805,6.029,13.3047,4.60130,2470.717,2023-11-23T12:31:21Z
2023-11-23T10:31:56Z,42.805,6.029,13.3039,4.60116,2470.763,2023-11-23T12:34:24Z
2023-11-23T10:34:59Z,42.805,6.029,13.3034,4.60117,2470.717,2023-11-23T12:37:27Z
2023-11-23T10:38:02Z,42.805,6.029,13.3036,4.60117,2470.717,2023-11-23T12:40:30Z
2023-11-23T10:41:05Z,42.805,6.029,13.3038,4.60117,2470.74,2023-11-23T12:43:33Z
2023-11-23T10:44:08Z,42.805,6.029,13.3039,4.60115,2470.717,2023-11-23T12:46:36Z
2023-11-23T10:47:12Z,42.805,6.029,13.3043,4.60132,2470.717,2023-11-23T12:49:39Z
2023-11-23T10:50:15Z,42.805,6.029,13.3039,4.60127,2470.777,2023-11-23T12:52:43Z
2023-11-23T10:53:18Z,42.805,6.029,13.3044,4.60142,2470.754,2023-11-23T12:55:46Z
2023-11-23T10:56:21Z,42.805,6.029,13.3032,4.60120,2470.74,2023-11-23T12:58:49Z
2023-11-23T10:59:24Z,42.805,6.029,13.3040,4.60123,2470.73,2023-11-23T13:01:52Z
2023-11-23T11:02:27Z,42.805,6.029,13.3036,4.60117,2470.74,2023-11-23T13:04:55Z
2023-11-23T11:05:30Z,42.805,6.029,13.3037,4.60114,2470.763,2023-11-23T13:07:58Z
2023-11-23T11:08:33Z,42.805,6.029,13.3036,4.60127,2470.717,2023-11-23T13:11:01Z
2023-11-23T11:11:36Z,42.805,6.029,13.3039,4.60122,2470.717,2023-11-23T13:14:04Z
2023-11-23T11:14:39Z,42.805,6.029,13.3046,4.60132,2470.787,2023-11-23T13:17:07Z
2023-11-23T11:17:42Z,42.805,6.029,13.3038,4.60128,2470.763,2023-11-23T13:20:10Z
2023-11-23T11:20:46Z,42.805,6.029,13.3036,4.60125,2470.726,2023-11-23T13:23:13Z
2023-11-23T11:23:49Z,42.805,6.029,13.3050,4.60141,2470.777,2023-11-23T13:26:16Z
2023-11-23T11:26:52Z,42.805,6.029,13.3043,4.60123,2470.754,2023-11-23T13:29:20Z
2023-11-23T11:29:55Z,42.805,6.029,13.3043,4.60133,2470.679,2023-11-23T13:32:23Z
2023-11-23T11:32:58Z,42.805,6.029,13.3049,4.60134,2470.74,2023-11-23T13:35:26Z
2023-11-23T11:36:01Z,42.805,6.029,13.3040,4.60137,2470.763,2023-11-23T13:38:29Z
2023-11-23T11:39:04Z,42.805,6.029,13.3034,4.60131,2470.763,2023-11-23T13:41:32Z
2023-11-23T11:42:07Z,42.805,6.029,13.3038,4.60126,2470.754,2023-11-23T13:44:35Z
2023-11-23T11:45:10Z,42.805,6.029,13.3041,4.60126,2470.73,2023-11-23T13:47:38Z
2023-11-23T11:48:13Z,42.805,6.029,13.3051,4.60133,2470.74,2023-11-23T13:50:41Z
2023-11-23T11:51:16Z,42.805,6.029,13.3046,4.60142,2470.74,2023-11-23T13:53:44Z
2023-11-23T11:54:19Z,42.805,6.029,13.3041,4.60128,2470.754,2023-11-23T13:56:47Z
2023-11-23T11:57:23Z,42.805,6.029,13.3047,4.60152,2470.777,2023-11-23T13:59:50Z
2023-11-23T12:00:26Z,42.805,6.029,13.3046,4.60148,2470.74,2023-11-23T14:02:53Z
2023-11-23T12:03:29Z,42.805,6.029,13.3039,4.60135,2470.763,2023-11-23T14:05:57Z
2023-11-23T12:06:32Z,42.805,6.029,13.3045,4.60130,2470.763,2023-11-23T14:09:00Z
2023-11-23T12:09:35Z,42.805,6.029,13.3039,4.60135,2470.777,2023-11-23T14:12:03Z
2023-11-23T12:12:38Z,42.805,6.029,13.3048,4.60139,2470.777,2023-11-23T14:15:06Z
2023-11-23T12:15:41Z,42.805,6.029,13.3040,4.60122,2470.763,2023-11-23T14:18:09Z
2023-11-23T12:18:44Z,42.805,6.029,13.3043,4.60127,2470.787,2023-11-23T14:21:12Z
2023-11-23T12:21:47Z,42.805,6.029,13.3038,4.60127,2470.763,2023-11-23T14:24:15Z
2023-11-23T12:24:50Z,42.805,6.029,13.3036,4.60130,2470.787,2023-11-23T14:27:18Z
2023-11-23T12:27:53Z,42.805,6.029,13.3038,4.60122,2470.763,2023-11-23T14:30:21Z
2023-11-23T12:30:56Z,42.805,6.029,13.3045,4.60139,2470.763,2023-11-23T14:33:24Z
2023-11-23T12:34:00Z,42.805,6.029,13.3043,4.60133,2470.763,2023-11-23T14:36:27Z
2023-11-23T12:37:03Z,42.805,6.029,13.3039,4.60126,2470.787,2023-11-23T14:39:30Z
2023-11-23T12:40:06Z,42.805,6.029,13.3042,4.60158,2470.754,2023-11-23T14:42:34Z
2023-11-23T12:43:09Z,42.805,6.029,13.3048,4.60155,2470.754,2023-11-23T14:45:37Z
2023-11-23T12:46:12Z,42.805,6.029,13.3043,4.60157,2470.763,2023-11-23T14:48:40Z
2023-11-23T12:49:15Z,42.805,6.029,13.3036,4.60122,2470.8,2023-11-23T14:51:43Z
2023-11-23T12:52:18Z,42.805,6.029,13.3046,4.60137,2470.787,2023-11-23T14:54:46Z
2023-11-23T12:55:21Z,42.805,6.029,13.3043,4.60140,2470.763,2023-11-23T14:57:49Z
2023-11-23T12:58:24Z,42.805,6.029,13.3046,4.60146,2470.81,2023-11-23T15:00:52Z
2023-11-23T13:01:27Z,42.805,6.029,13.3045,4.60155,2470.787,2023-11-23T15:03:55Z
2023-11-23T13:04:30Z,42.805,6.029,13.3041,4.60135,2470.787,2023-11-23T15:06:58Z
2023-11-23T13:07:33Z,42.805,6.029,13.3051,4.60124,2470.8,2023-11-23T15:10:01Z
2023-11-23T13:10:37Z,42.805,6.029,13.3047,4.60143,2470.787,2023-11-23T15:13:04Z
2023-11-23T13:13:40Z,42.805,6.029,13.3049,4.60140,2470.787,2023-11-23T15:16:08Z
2023-11-23T13:16:43Z,42.805,6.029,13.3046,4.60150,2470.81,2023-11-23T15:19:11Z
2023-11-23T13:19:46Z,42.805,6.029,13.3035,4.60142,2470.81,2023-11-23T15:22:14Z
2023-11-23T13:22:49Z,42.805,6.029,13.3038,4.60150,2470.787,2023-11-23T15:25:17Z
2023-11-23T13:25:52Z,42.805,6.029,13.3043,4.60135,2470.833,2023-11-23T15:28:20Z
2023-11-23T13:28:55Z,42.805,6.029,13.3043,4.60132,2470.824,2023-11-23T15:31:23Z
2023-11-23T13:32:00Z,42.805,6.029,13.3036,4.60134,2470.81,2023-11-23T15:34:28Z
2023-11-23T13:35:03Z,42.805,6.029,13.3041,4.60132,2470.857,2023-11-23T15:37:31Z
2023-11-23T13:38:06Z,42.805,6.029,13.3047,4.60151,2470.81,2023-11-23T15:40:34Z
2023-11-23T13:41:09Z,42.805,6.029,13.3041,4.60142,2470.824,2023-11-23T15:43:37Z
2023-11-23T13:44:12Z,42.805,6.029,13.3039,4.60139,2470.824,2023-11-23T15:46:40Z
2023-11-23T13:47:15Z,42.805,6.029,13.3045,4.60137,2470.81,2023-11-23T15:49:43Z
2023-11-23T13:50:19Z,42.805,6.029,13.3041,4.60144,2470.857,2023-11-23T15:52:46Z
2023-11-23T13:53:22Z,42.805,6.029,13.3041,4.60137,2470.871,2023-11-23T15:55:50Z
2023-11-23T13:56:25Z,42.805,6.029,13.3045,4.60132,2470.81,2023-11-23T15:58:53Z
2023-11-23T13:59:28Z,42.805,6.029,13.3045,4.60132,2470.833,2023-11-23T16:01:56Z
2023-11-23T14:02:31Z,42.805,6.029,13.3043,4.60142,2470.833,2023-11-23T16:04:59Z
2023-11-23T14:05:34Z,42.805,6.029,13.3046,4.60140,2470.857,2023-11-23T16:08:02Z
2023-11-23T14:08:37Z,42.805,6.029,13.3048,4.60163,2470.81,2023-11-23T16:11:05Z
2023-11-23T14:11:40Z,42.805,6.029,13.3051,4.60162,2470.857,2023-11-23T16:14:08Z
2023-11-23T14:14:43Z,42.805,6.029,13.3043,4.60133,2470.871,2023-11-23T16:17:11Z
2023-11-23T14:17:46Z,42.805,6.029,13.3053,4.60139,2470.871,2023-11-23T16:20:14Z
2023-11-23T14:20:49Z,42.805,6.029,13.3046,4.60142,2470.833,2023-11-23T16:23:17Z
2023-11-23T14:23:52Z,42.805,6.029,13.3050,4.60146,2470.857,2023-11-23T16:26:20Z
2023-11-23T14:26:56Z,42.805,6.029,13.3054,4.60160,2470.857,2023-11-23T16:29:23Z
2023-11-23T14:29:59Z,42.805,6.029,13.3044,4.60152,2470.894,2023-11-23T16:32:27Z
2023-11-23T14:33:02Z,42.805,6.029,13.3054,4.60154,2470.857,2023-11-23T16:35:30Z
2023-11-23T14:36:05Z,42.805,6.029,13.3054,4.60169,2470.857,2023-11-23T16:38:33Z
2023-11-23T14:39:08Z,42.805,6.029,13.3045,4.60146,2470.88,2023-11-23T16:41:36Z
2023-11-23T14:42:11Z,42.805,6.029,13.3046,4.60150,2470.88,2023-11-23T16:44:39Z
2023-11-23T14:45:14Z,42.805,6.029,13.3048,4.60160,2470.871,2023-11-23T16:47:42Z
2023-11-23T14:48:17Z,42.805,6.029,13.3046,4.60159,2470.857,2023-11-23T16:50:45Z
2023-11-23T14:51:20Z,42.805,6.029,13.3044,4.60151,2470.871,2023-11-23T16:53:48Z
2023-11-23T14:54:23Z,42.805,6.029,13.3041,4.60138,2470.871,2023-11-23T16:56:51Z
2023-11-23T14:57:26Z,42.805,6.029,13.3040,4.60150,2470.88,2023-11-23T16:59:54Z
2023-11-23T15:00:30Z,42.805,6.029,13.3046,4.60167,2470.857,2023-11-23T17:02:57Z